STARLINK-31958, 59924

Orbit data source: Space-Track

STARLINK-31958, 59924 is a payload satellite owned by SpaceX/Seattle (US) in LEO that was launched on Sat, 01 Jun 2024 UTC via an FALCON 9 launch vehicle from the Air Force Eastern Test Range (AFETR). Payload-class satellites include a variety of spacecraft equipped with specific instruments for various scientific and technological missions. These include communications satellites like Starlink; space stations such as the ISS; scientific satellites like the Hubble; Earth observation satellites from companies like Planet Labs, Umbra, and HawkEye 360; GPS; miniature CubeSats for education and research; and military/defense satellites.

Loading next visibility...
Identifier
59924, 2024-106C
Orbit
LEO
Country
Flag of USUS
Related business
Manufacturer
SpaceX/Seattle
Mission
Operational Commercial Communications
Bus & Motor
STARLINK V2M, Unknown motor
Mass
730 kg wet, ~700 kg dry
Launch date (UTC)
2024-06-01 (2 years ago)
Launch vehicle
FALCON 9
Launch site
Air Force Eastern Test Range (AFETR)
Object type
Payload
Rocket body
Debris
Shape & HBR
Box + 2 Pan, 17.7 m
Radar Cross Section
33.884 m², Large (>1 m²)

Expand to show TLE details & history
Last TLE update: 8 hours ago

TLE from 8 hours ago
0 STARLINK-31958
1 59924U 24106C   26208.83285063  .00001772  00000-0  73913-4 0  9999
2 59924  43.0034 246.5589 0001321 273.2833  86.7867 15.27581732122120
Epoch: 2026-07-27T19:59Z
TLE epoch observation values (Epoch: 2026-07-27T19:59:18.294Z)
Latitude
-0.00005°
Longitude
1.22186°
Altitude
482.769 km
Speed
7.626 km/s
True Right ascension
16h 26m 14s
True Declination
0° 00' 00"
Sunlit
Object was in full shadow at epoch
Visualization orbit readout
Latitude
Unknown
Longitude
Unknown
Altitude
Unknown
Speed
Unknown
Apparent Right ascension
Unknown
Apparent Declination
Unknown
Sunlit
N/A
Visualization observer readout
Local Sidereal Time
17:13:28
Azimuth
Unknown
Elevation
Unknown
Doppler factor
Unknown
Orbital elements
Apogee altitude
485.895 km
Perigee altitude
484.082 km
Semi-major axis
6,863.126 km
Eccentricity
0.00013
Inclination
43.0034°
RAAN
246.5589°
Arg. of periapsis
273.2833°
True anomaly
86.80181°
Mean anomaly
86.7867°
Eccentric anomaly
86.79426°
Mean motion
3.81733 °/min
Orbital period
94.31 mins
BSTAR
0.000073913
Loading maneuver chart data...
Computing Atmospheric mass density...
Loading historical data...
Loading historical data...
Loading historical data...
Loading historical data...
Loading historical data...
Loading historical data...
Loading historical data...

Documentation

Showing up to 5 results
|